User: anonymous   Login
Location: Unspecified
(0.0000°N, 0.0000°E)
Time: 07:31:11
(UTC+00:00)
Language:

Explorer 27 - Orbit

View from above orbital plane
View from above orbital plane
View from above satellite
View from above satellite

Ground track
Ground track

The orbit data is extracted from the following two-line orbital elements,

1  1328U 65032A   17148.90385192 -.00000047 +00000-0 +60323-4 0  9998
2  1328 041.1826 120.0368 0247904 028.9762 332.4505 13.38526574545244
Epoch (UTC): 28 May 2017 21:41:32
Eccentricity: 0.0247904
inclination: 41.1826°
perigee height: 929 km
apogee height: 1300 km
right ascension of ascending node: 120.0368°
argument of perigee: 28.9762°
revolutions per day: 13.38526574
mean anomaly at epoch: 332.4505°
orbit number at epoch: 54524

The dashed part of the orbit path shows where the satellite is in the earth's shadow,  

DLR